| time (UTC) | temp F | wind direction | speed MPH | gust MPH | rain 1hr in | rain 24hr in | rain mn in | humidity % | barometer mb |
| 20260510201823 | 66 | 113 | 0.0 | 2.0 | 0.00 | 1.11 | 0.00 | 7 | 1012.0 |
| 20260510201321 | 66 | 238 | 0.0 | 2.0 | 0.00 | 1.11 | 0.00 | 7 | 1012.0 |
| 20260510200827 | 65 | 203 | 0.0 | 2.0 | 0.00 | 1.11 | 0.00 | 5 | 1012.0 |
| 20260510200823 | 66 | 131 | 0.0 | 2.0 | 0.00 | 1.11 | 0.00 | 4 | 1012.0 |
| 20260510200443 | 65 | 89 | 0.0 | 1.0 | 0.00 | 1.11 | 0.00 | 100 | 1012.0 |
| 20260510195327 | 65 | 131 | 0.0 | 1.0 | 0.00 | 1.12 | 0.00 | 100 | 1012.2 |
| 20260510195322 | 65 | 151 | 0.0 | 1.0 | 0.00 | 1.11 | 0.00 | 100 | 1012.1 |
| 20260510194941 | 64 | 212 | 0.0 | 2.0 | 0.00 | 1.12 | 0.00 | 100 | 1012.3 |
| 20260510193821 | 64 | 127 | 0.0 | 2.0 | 0.00 | 1.12 | 0.00 | 100 | 1012.3 |
| 20260510193322 | 64 | 193 | 0.0 | 2.0 | 0.00 | 1.13 | 0.00 | 100 | 1012.3 |
| 20260510192820 | 64 | 141 | 0.0 | 1.0 | 0.00 | 1.13 | 0.00 | 100 | 1012.3 |
| 20260510192320 | 65 | 135 | 0.0 | 1.0 | 0.00 | 1.14 | 0.00 | 100 | 1012.5 |
| 20260510191821 | 65 | 130 | 0.0 | 2.0 | 0.00 | 1.15 | 0.00 | 100 | 1012.6 |
| 20260510191319 | 65 | 137 | 0.0 | 2.0 | 0.00 | 1.16 | 0.00 | 100 | 1012.6 |
| 20260510190820 | 65 | 223 | 0.0 | 1.0 | 0.00 | 1.17 | 0.00 | 100 | 1012.5 |
| 20260510190319 | 64 | 165 | 0.0 | 1.0 | 0.00 | 1.17 | 0.00 | 100 | 1012.6 |
| 20260510185820 | 63 | 231 | 0.0 | 2.0 | 0.00 | 1.18 | 0.00 | 100 | 1012.7 |
| 20260510185319 | 64 | 116 | 0.0 | 2.0 | 0.00 | 1.19 | 0.00 | 100 | 1012.7 |
| 20260510184824 | 64 | 104 | 0.0 | 2.0 | 0.00 | 1.20 | 0.00 | 100 | 1012.5 |
| 20260510184819 | 64 | 207 | 0.0 | 2.0 | 0.00 | 1.20 | 0.00 | 100 | 1012.7 |
| 20260510183819 | 65 | 158 | 0.0 | 2.0 | 0.00 | 1.21 | 0.00 | 100 | 1012.6 |
| 20260510183325 | 66 | 151 | 0.0 | 2.0 | 0.00 | 1.22 | 0.00 | 5 | 1012.5 |
| 20260510183320 | 65 | 154 | 0.0 | 1.0 | 0.00 | 1.21 | 0.00 | 100 | 1012.6 |
| 20260510182940 | 67 | 258 | 0.0 | 2.0 | 0.00 | 1.22 | 0.00 | 6 | 1012.5 |
| 20260510181818 | 68 | 172 | 0.0 | 1.0 | 0.00 | 1.23 | 0.00 | 3 | 1012.5 |
| 20260510181318 | 69 | 251 | 0.0 | 1.0 | 0.00 | 1.24 | 0.00 | 6 | 1012.4 |
| 20260510180817 | 69 | 141 | 0.0 | 3.0 | 0.00 | 1.25 | 0.00 | 13 | 1012.5 |
| 20260510180317 | 69 | 169 | 1.0 | 3.0 | 0.00 | 1.26 | 0.00 | 9 | 1012.5 |
| 20260510175818 | 69 | 227 | 0.0 | 2.0 | 0.00 | 1.27 | 0.00 | 100 | 1012.5 |
| 20260510175317 | 68 | 164 | 0.0 | 2.0 | 0.00 | 1.27 | 0.00 | 100 | 1012.6 |
| 20260510174818 | 68 | 116 | 0.0 | 2.0 | 0.00 | 1.27 | 0.00 | 100 | 1012.8 |
| 20260510174322 | 67 | 231 | 0.0 | 2.0 | 0.00 | 1.27 | 0.00 | 100 | 1012.7 |
| 20260510174317 | 68 | 117 | 1.0 | 2.0 | 0.00 | 1.27 | 0.00 | 100 | 1012.7 |
| 20260510173316 | 66 | 266 | 0.0 | 3.0 | 0.00 | 1.27 | 0.00 | 100 | 1012.7 |
| 20260510172817 | 66 | 154 | 0.0 | 3.0 | 0.00 | 1.27 | 0.00 | 100 | 1012.7 |
| 20260510172315 | 66 | 158 | 0.0 | 1.0 | 0.00 | 1.27 | 0.00 | 100 | 1012.7 |
| 20260510171820 | 65 | 131 | 0.0 | 2.0 | 0.00 | 1.27 | 0.00 | 100 | 1012.8 |
| 20260510171816 | 65 | 131 | 0.0 | 2.0 | 0.00 | 1.27 | 0.00 | 100 | 1012.7 |
| 20260510170820 | 64 | 125 | 0.0 | 2.0 | 0.00 | 1.27 | 0.00 | 100 | 1012.8 |
| 20260510170815 | 64 | 131 | 0.0 | 1.0 | 0.00 | 1.27 | 0.00 | 100 | 1012.9 |
| 20260510170436 | 63 | 134 | 0.0 | 3.0 | 0.00 | 1.27 | 0.00 | 100 | 1012.8 |
| 20260510165320 | 61 | 281 | 0.0 | 2.0 | 0.00 | 1.27 | 0.00 | 100 | 1012.9 |
| 20260510165315 | 62 | 165 | 0.0 | 3.0 | 0.00 | 1.27 | 0.00 | 100 | 1012.8 |
| 20260510164315 | 61 | 327 | 0.0 | 2.0 | 0.00 | 1.27 | 0.00 | 100 | 1013.1 |
| 20260510163815 | 61 | 276 | 0.0 | 1.0 | 0.00 | 1.27 | 0.00 | 100 | 1013.0 |
| 20260510163315 | 60 | 193 | 0.0 | 1.0 | 0.00 | 1.27 | 0.00 | 100 | 1013.0 |
| 20260510162815 | 60 | 135 | 0.0 | 1.0 | 0.00 | 1.27 | 0.00 | 100 | 1013.0 |
| 20260510162319 | 60 | 195 | 0.0 | 1.0 | 0.00 | 1.27 | 0.00 | 100 | 1013.1 |
| 20260510162314 | 60 | 283 | 0.0 | 1.0 | 0.00 | 1.27 | 0.00 | 100 | 1012.9 |
| 20260510161314 | 60 | 307 | 0.0 | 1.0 | 0.00 | 1.27 | 0.00 | 100 | 1013.0 |
| 20260510160813 | 59 | 147 | 0.0 | 3.0 | 0.00 | 1.27 | 0.00 | 100 | 1012.9 |
| 20260510160314 | 59 | 138 | 1.0 | 3.0 | 0.00 | 1.27 | 0.00 | 100 | 1013.0 |
| 20260510155813 | 59 | 142 | 0.0 | 2.0 | 0.00 | 1.27 | 0.00 | 100 | 1013.1 |
| 20260510155314 | 59 | 149 | 0.0 | 2.0 | 0.00 | 1.27 | 0.00 | 100 | 1013.1 |
| 20260510154813 | 59 | 178 | 0.0 | 1.0 | 0.00 | 1.27 | 0.00 | 100 | 1013.0 |
| 20260510154318 | 59 | 124 | 0.0 | 1.0 | 0.00 | 1.27 | 0.00 | 100 | 1013.1 |
| 20260510154312 | 59 | 159 | 0.0 | 1.0 | 0.00 | 1.27 | 0.00 | 100 | 1013.0 |
| 20260510153313 | 58 | 182 | 0.0 | 1.0 | 0.00 | 1.27 | 0.00 | 100 | 1013.3 |
| 20260510152813 | 58 | 120 | 0.0 | 1.0 | 0.00 | 1.27 | 0.00 | 100 | 1013.4 |
| 20260510152312 | 58 | 124 | 0.0 | 1.0 | 0.00 | 1.27 | 0.00 | 100 | 1013.4 |
| 20260510151811 | 58 | 264 | 0.0 | 1.0 | 0.00 | 1.27 | 0.00 | 100 | 1013.4 |
| 20260510151311 | 57 | 114 | 0.0 | 1.0 | 0.00 | 1.27 | 0.00 | 100 | 1013.4 |
| 20260510150812 | 57 | 158 | 0.0 | 1.0 | 0.00 | 1.27 | 0.00 | 100 | 1013.4 |
| 20260510150311 | 57 | 137 | 0.0 | 1.0 | 0.00 | 1.27 | 0.00 | 100 | 1013.5 |
| 20260510145811 | 56 | 166 | 0.0 | 1.0 | 0.00 | 1.27 | 0.00 | 100 | 1013.6 |
| 20260510145313 | 56 | 138 | 0.0 | 0.0 | 0.00 | 1.27 | 0.00 | 100 | 1013.5 |
| 20260510144811 | 56 | 144 | 0.0 | 0.0 | 0.00 | 1.27 | 0.00 | 100 | 1013.4 |
| 20260510144311 | 56 | 145 | 0.0 | 0.0 | 0.00 | 1.27 | 0.00 | 100 | 1013.3 |
| 20260510143810 | 56 | 145 | 0.0 | 1.0 | 0.00 | 1.27 | 0.00 | 100 | 1013.2 |
| 20260510143310 | 55 | 140 | 0.0 | 1.0 | 0.00 | 1.27 | 0.00 | 100 | 1013.2 |
| 20260510142811 | 55 | 182 | 0.0 | 0.0 | 0.00 | 1.27 | 0.00 | 100 | 1013.1 |
| 20260510142310 | 55 | 214 | 0.0 | 1.0 | 0.00 | 1.27 | 0.00 | 100 | 1013.2 |
| 20260510141810 | 54 | 214 | 0.0 | 1.0 | 0.00 | 1.27 | 0.00 | 100 | 1013.1 |
| 20260510141310 | 54 | 231 | 0.0 | 1.0 | 0.00 | 1.27 | 0.00 | 100 | 1013.0 |
| 20260510140811 | 54 | 127 | 0.0 | 2.0 | 0.00 | 1.27 | 0.00 | 100 | 1012.9 |
| 20260510140309 | 53 | 117 | 0.0 | 2.0 | 0.00 | 1.27 | 0.00 | 100 | 1013.0 |
| 20260510135809 | 53 | 220 | 0.0 | 0.0 | 0.00 | 1.27 | 0.00 | 100 | 1013.0 |
| 20260510135309 | 53 | 206 | 0.0 | 0.0 | 0.00 | 1.27 | 0.00 | 100 | 1013.0 |
| 20260510134809 | 53 | 138 | 0.0 | 0.0 | 0.00 | 1.27 | 0.00 | 100 | 1013.0 |
| 20260510134309 | 53 | 185 | 0.0 | 1.0 | 0.00 | 1.27 | 0.00 | 100 | 1013.0 |
| 20260510133808 | 53 | 185 | 0.0 | 1.0 | 0.00 | 1.27 | 0.00 | 100 | 1013.0 |
| 20260510133308 | 53 | 133 | 0.0 | 1.0 | 0.00 | 1.27 | 0.00 | 100 | 1013.0 |
| 20260510132808 | 54 | 141 | 0.0 | 1.0 | 0.00 | 1.27 | 0.00 | 100 | 1012.7 |
| 20260510132313 | 54 | 196 | 0.0 | 0.0 | 0.00 | 1.27 | 0.00 | 100 | 1012.8 |
| 20260510132308 | 54 | 196 | 0.0 | 0.0 | 0.00 | 1.27 | 0.00 | 100 | 1012.8 |
| 20260510131307 | 53 | 147 | 0.0 | 0.0 | 0.00 | 1.27 | 0.00 | 100 | 1012.8 |
| 20260510130808 | 53 | 144 | 0.0 | 0.0 | 0.00 | 1.27 | 0.00 | 100 | 1012.7 |
| 20260510130307 | 53 | 142 | 0.0 | 0.0 | 0.00 | 1.27 | 0.00 | 100 | 1012.8 |
| 20260510125807 | 53 | 149 | 0.0 | 0.0 | 0.00 | 1.27 | 0.00 | 100 | 1012.9 |
| 20260510125307 | 53 | 224 | 0.0 | 0.0 | 0.00 | 1.27 | 0.00 | 100 | 1012.7 |
| 20260510124811 | 53 | 224 | 0.0 | 0.0 | 0.00 | 1.27 | 0.00 | 100 | 1012.5 |
| 20260510124806 | 54 | 224 | 0.0 | 0.0 | 0.00 | 1.27 | 0.00 | 100 | 1012.7 |
| 20260510123806 | 53 | 224 | 0.0 | 0.0 | 0.00 | 1.27 | 0.00 | 100 | 1012.5 |
| 20260510123307 | 53 | 226 | 0.0 | 0.0 | 0.00 | 1.27 | 0.00 | 100 | 1012.5 |
| 20260510122806 | 53 | 226 | 0.0 | 0.0 | 0.00 | 1.27 | 0.00 | 100 | 1012.3 |
| 20260510122307 | 53 | 227 | 0.0 | 0.0 | 0.00 | 1.27 | 0.00 | 100 | 1012.3 |
| 20260510121806 | 53 | 175 | 0.0 | 0.0 | 0.00 | 1.27 | 0.00 | 100 | 1012.3 |
| 20260510121305 | 53 | 175 | 0.0 | 0.0 | 0.00 | 1.28 | 0.00 | 100 | 1012.2 |
| 20260510120806 | 53 | 125 | 0.0 | 0.0 | 0.00 | 1.28 | 0.00 | 100 | 1012.2 |
| 20260510120305 | 53 | 231 | 0.0 | 0.0 | 0.00 | 1.28 | 0.00 | 100 | 1012.2 |
| 20260510115806 | 52 | 231 | 0.0 | 0.0 | 0.00 | 1.28 | 0.00 | 100 | 1012.2 |
| 20260510115306 | 53 | 172 | 0.0 | 0.0 | 0.00 | 1.28 | 0.00 | 100 | 1012.2 |
| 20260510114805 | 52 | 182 | 0.0 | 0.0 | 0.00 | 1.28 | 0.00 | 100 | 1012.2 |
| 20260510114305 | 52 | 182 | 0.0 | 0.0 | 0.00 | 1.28 | 0.00 | 100 | 1012.1 |
| 20260510113804 | 52 | 197 | 0.0 | 0.0 | 0.00 | 1.28 | 0.00 | 100 | 1011.9 |
| 20260510113304 | 52 | 148 | 0.0 | 0.0 | 0.94 | 1.28 | 0.00 | 100 | 1011.9 |
| 20260510112804 | 52 | 148 | 0.0 | 1.0 | 0.94 | 1.28 | 0.00 | 100 | 1011.8 |
| 20260510112306 | 52 | 148 | 0.0 | 1.0 | 0.94 | 1.28 | 0.00 | 100 | 1011.8 |
| 20260510111803 | 52 | 175 | 0.0 | 0.0 | 0.94 | 1.28 | 0.00 | 100 | 1011.8 |
| 20260510111304 | 52 | 175 | 0.0 | 0.0 | 0.94 | 1.28 | 0.00 | 100 | 1011.9 |
| 20260510110808 | 52 | 175 | 0.0 | 0.0 | 0.94 | 1.28 | 0.00 | 100 | 1011.9 |
| 20260510110803 | 52 | 175 | 0.0 | 0.0 | 0.94 | 1.28 | 0.00 | 100 | 1011.9 |
| 20260510110424 | 52 | 175 | 0.0 | 0.0 | 0.94 | 1.28 | 0.00 | 100 | 1012.0 |
| 20260510105306 | 52 | 175 | 0.0 | 0.0 | 0.94 | 1.28 | 0.00 | 100 | 1011.9 |
| 20260510104803 | 52 | 175 | 0.0 | 0.0 | 0.94 | 1.28 | 0.00 | 100 | 1011.9 |
| 20260510104302 | 51 | 175 | 0.0 | 0.0 | 0.94 | 1.28 | 0.00 | 100 | 1011.7 |
| 20260510103802 | 51 | 175 | 0.0 | 0.0 | 0.94 | 1.28 | 0.00 | 100 | 1011.7 |
| 20260510103302 | 0 | 0.0 | 0.0 | 0.00 | 0.34 | 0.00 | 1011.7 | ||
| 20260510102801 | 0 | 0.0 | 0.0 | 0.00 | 0.34 | 0.00 | 1011.7 | ||
| 20260510102306 | 0 | 0.0 | 0.0 | 0.00 | 0.34 | 0.00 | 1011.7 | ||
| 20260510102300 | 0 | 0.0 | 0.0 | 0.00 | 0.34 | 0.00 | 1011.8 | ||
| 20260510101303 | 0 | 0.0 | 0.0 | 0.00 | 0.34 | 0.00 | 1011.7 | ||
| 20260510101259 | 0 | 0.0 | 0.0 | 0.00 | 0.34 | 0.00 | 1011.9 | ||
| 20260510100301 | 0 | 0.0 | 0.0 | 0.00 | 0.34 | 0.00 | 1011.7 | ||
| 20260510100257 | 0 | 0.0 | 0.0 | 0.00 | 0.34 | 0.00 | 1011.7 | ||
| 20260510095903 | 0 | 0.0 | 0.0 | 0.00 | 0.34 | 0.00 | 1011.7 | ||
| 20260510094759 | 0 | 0.0 | 0.0 | 0.00 | 0.34 | 0.00 | 1011.8 | ||
| 20260510094755 | 0 | 0.0 | 0.0 | 0.00 | 0.34 | 0.00 | 1011.9 | ||
| 20260510093753 | 0 | 0.0 | 0.0 | 0.00 | 0.34 | 0.00 | 1011.9 | ||
| 20260510093252 | 0 | 0.0 | 0.0 | 0.00 | 0.34 | 0.00 | 1011.9 | ||
| 20260510092751 | 0 | 0.0 | 0.0 | 0.00 | 0.34 | 0.00 | 1011.9 | ||
| 20260510092249 | 0 | 0.0 | 0.0 | 0.00 | 0.34 | 0.00 | 1012.0 | ||
| 20260510091748 | 0 | 0.0 | 0.0 | 0.00 | 0.34 | 0.00 | 1012.0 | ||
| 20260510091252 | 0 | 0.0 | 0.0 | 0.00 | 0.34 | 0.00 | 1012.0 | ||
| 20260510091248 | 0 | 0.0 | 0.0 | 0.00 | 0.34 | 0.00 | 1012.0 | ||
| 20260510090246 | 0 | 0.0 | 0.0 | 0.00 | 0.34 | 0.00 | 1012.0 | ||
| 20260510085745 | 0 | 0.0 | 0.0 | 0.00 | 0.34 | 0.00 | 1012.0 | ||
| 20260510085244 | 0 | 0.0 | 0.0 | 0.00 | 0.34 | 0.00 | 1012.0 | ||
| 20260510084743 | 0 | 0.0 | 0.0 | 0.00 | 0.34 | 0.00 | 1012.0 | ||
| 20260510084241 | 0 | 0.0 | 0.0 | 0.00 | 0.34 | 0.00 | 1012.1 | ||
| 20260510083740 | 0 | 0.0 | 0.0 | 0.00 | 0.34 | 0.00 | 1012.1 | ||
| 20260510083239 | 0 | 0.0 | 0.0 | 0.00 | 0.34 | 0.00 | 1012.0 | ||
| 20260510082738 | 0 | 0.0 | 0.0 | 0.00 | 0.34 | 0.00 | 1011.9 | ||
| 20260510082241 | 0 | 0.0 | 0.0 | 0.00 | 0.34 | 0.00 | 1011.5 | ||
| 20260510082237 | 0 | 0.0 | 0.0 | 0.00 | 0.34 | 0.00 | 1011.9 | ||
| 20260510081843 | 0 | 0.0 | 0.0 | 0.00 | 0.34 | 0.00 | 1011.3 | ||
| 20260510080740 | 0 | 0.0 | 0.0 | 0.00 | 0.34 | 0.00 | 1011.1 | ||
| 20260510080735 | 0 | 0.0 | 0.0 | 0.00 | 0.34 | 0.00 | 1011.1 | ||
| 20260510075732 | 0 | 0.0 | 0.0 | 0.00 | 0.34 | 0.00 | 1011.0 | ||
| 20260510075232 | 0 | 0.0 | 0.0 | 0.00 | 0.34 | 0.00 | 1011.1 | ||
| 20260510074730 | 0 | 0.0 | 0.0 | 0.00 | 0.34 | 0.00 | 1011.1 | ||
| 20260510074229 | 0 | 0.0 | 0.0 | 0.00 | 0.34 | 0.00 | 1011.0 | ||
| 20260510073728 | 0 | 0.0 | 0.0 | 0.00 | 0.34 | 0.00 | 1011.1 | ||
| 20260510073227 | 0 | 0.0 | 0.0 | 0.00 | 0.34 | 0.00 | 1011.2 | ||
| 20260510072727 | 0 | 0.0 | 0.0 | 0.00 | 0.34 | 0.00 | 1011.2 | ||
| 20260510072226 | 0 | 0.0 | 0.0 | 0.00 | 0.34 | 0.00 | 1011.2 | ||
| 20260510071729 | 0 | 0.0 | 0.0 | 0.00 | 0.34 | 0.00 | 1011.2 | ||
| 20260510071724 | 0 | 0.0 | 0.0 | 0.00 | 0.34 | 0.00 | 1011.2 | ||
| 20260510070722 | 0 | 0.0 | 0.0 | 0.00 | 0.34 | 0.00 | 1011.2 | ||
| 20260510070226 | 0 | 0.0 | 0.0 | 0.00 | 0.34 | 0.00 | 1011.1 | ||
| 20260510070221 | 0 | 0.0 | 0.0 | 0.00 | 0.34 | 0.00 | 1011.1 | ||
| 20260510065220 | 0 | 0.0 | 0.0 | 0.00 | 0.34 | 0.00 | 1011.1 | ||
| 20260510064719 | 0 | 0.0 | 0.0 | 0.00 | 0.34 | 0.00 | 1011.2 | ||
| 20260510064218 | 0 | 0.0 | 0.0 | 0.00 | 0.34 | 0.00 | 1011.2 | ||
| 20260510063717 | 0 | 0.0 | 0.0 | 0.00 | 0.34 | 0.00 | 1011.2 | ||
| 20260510063216 | 0 | 0.0 | 0.0 | 0.00 | 0.34 | 0.00 | 1011.0 | ||
| 20260510062715 | 0 | 0.0 | 0.0 | 0.00 | 0.34 | 0.00 | 1011.1 | ||
| 20260510062214 | 0 | 0.0 | 0.0 | 0.00 | 0.34 | 0.00 | 1010.9 | ||
| 20260510061713 | 0 | 0.0 | 0.0 | 0.00 | 0.34 | 0.00 | 1010.8 | ||
| 20260510061212 | 0 | 0.0 | 0.0 | 0.00 | 0.34 | 0.00 | 1010.9 | ||
| 20260510060711 | 0 | 0.0 | 0.0 | 0.00 | 0.34 | 0.00 | 1010.8 | ||
| 20260510060210 | 0 | 0.0 | 0.0 | 0.00 | 0.34 | 0.00 | 1010.9 | ||
| 20260510055709 | 0 | 0.0 | 0.0 | 0.00 | 0.34 | 0.00 | 1010.8 | ||
| 20260510055212 | 0 | 0.0 | 0.0 | 0.00 | 0.34 | 0.00 | 1010.9 | ||
| 20260510055208 | 0 | 0.0 | 0.0 | 0.00 | 0.34 | 0.00 | 1010.8 | ||
| 20260510054210 | 0 | 0.0 | 0.0 | 0.00 | 0.34 | 0.00 | 1011.1 | ||
| 20260510054206 | 0 | 0.0 | 0.0 | 0.00 | 0.34 | 0.00 | 1011.0 | ||
| 20260510053204 | 0 | 0.0 | 0.0 | 0.00 | 0.34 | 0.00 | 1011.1 | ||
| 20260510052703 | 0 | 0.0 | 0.0 | 0.00 | 0.34 | 0.00 | 1011.2 | ||
| 20260510052202 | 0 | 0.0 | 0.0 | 0.00 | 0.34 | 0.00 | 1011.1 | ||
| 20260510051701 | 0 | 0.0 | 0.0 | 0.00 | 0.34 | 0.00 | 1011.2 | ||
| 20260510051200 | 0 | 0.0 | 0.0 | 0.00 | 0.34 | 0.00 | 1011.1 | ||
| 20260510050659 | 0 | 0.0 | 0.0 | 0.00 | 0.34 | 0.00 | 1011.2 | ||
| 20260510050203 | 0 | 0.0 | 0.0 | 0.00 | 0.34 | 0.00 | 1011.1 | ||
| 20260510050159 | 0 | 0.0 | 0.0 | 0.00 | 0.34 | 0.00 | 1011.1 | ||
| 20260510045157 | 0 | 0.0 | 0.0 | 0.00 | 0.34 | 0.00 | 1011.1 | ||
| 20260510044655 | 0 | 0.0 | 0.0 | 0.00 | 0.34 | 0.00 | 1011.2 | ||
| 20260510044154 | 0 | 0.0 | 0.0 | 0.00 | 0.34 | 0.00 | 1011.1 | ||
| 20260510043653 | 0 | 0.0 | 0.0 | 0.00 | 0.34 | 0.00 | 1011.2 | ||
| 20260510043156 | 0 | 0.0 | 0.0 | 0.00 | 0.34 | 0.00 | 1011.1 | ||
| 20260510043152 | 0 | 0.0 | 0.0 | 0.00 | 0.34 | 0.00 | 1011.2 | ||
| 20260510042150 | 0 | 0.0 | 0.0 | 0.00 | 0.34 | 0.00 | 1011.1 | ||
| 20260510041649 | 0 | 0.0 | 0.0 | 0.00 | 0.34 | 0.00 | 1011.0 | ||
| 20260510041148 | 0 | 0.0 | 0.0 | 0.00 | 0.34 | 0.00 | 1010.9 | ||
| 20260510040647 | 0 | 0.0 | 0.0 | 0.00 | 0.34 | 0.00 | 1010.8 | ||
| 20260510040150 | 0 | 0.0 | 0.0 | 0.00 | 0.34 | 0.34 | 1010.7 | ||
| 20260510040146 | 0 | 0.0 | 0.0 | 0.00 | 0.34 | 0.00 | 1010.8 | ||
| 20260510035145 | 0 | 0.0 | 0.0 | 0.00 | 0.34 | 0.34 | 1010.6 | ||
| 20260510034644 | 0 | 0.0 | 0.0 | 0.00 | 0.34 | 0.34 | 1010.7 | ||
| 20260510034143 | 0 | 0.0 | 0.0 | 0.00 | 0.34 | 0.34 | 1010.7 | ||
| 20260510033642 | 0 | 0.0 | 0.0 | 0.00 | 0.34 | 0.34 | 1010.6 | ||
| 20260510033145 | 0 | 0.0 | 0.0 | 0.00 | 0.34 | 0.34 | 1010.5 | ||
| 20260510033141 | 0 | 0.0 | 0.0 | 0.00 | 0.34 | 0.34 | 1010.6 | ||
| 20260510032143 | 0 | 0.0 | 0.0 | 0.00 | 0.34 | 0.34 | 1010.7 | ||
| 20260510032139 | 0 | 0.0 | 0.0 | 0.00 | 0.34 | 0.34 | 1010.6 | ||
| 20260510031137 | 0 | 0.0 | 0.0 | 0.00 | 0.34 | 0.34 | 1010.8 | ||
| 20260510030636 | 0 | 0.0 | 0.0 | 0.00 | 0.34 | 0.34 | 1010.8 | ||
| 20260510030135 | 53 | 154 | 0.0 | 0.0 | 0.00 | 0.34 | 0.34 | 100 | 1010.7 |
| 20260510025633 | 53 | 157 | 0.0 | 0.0 | 0.00 | 0.34 | 0.34 | 100 | 1010.7 |
| 20260510025134 | 53 | 155 | 0.0 | 0.0 | 0.00 | 0.34 | 0.34 | 100 | 1010.8 |
| 20260510024634 | 53 | 155 | 0.0 | 0.0 | 0.00 | 0.34 | 0.34 | 100 | 1011.1 |
| 20260510024138 | 53 | 155 | 0.0 | 0.0 | 0.00 | 0.34 | 0.34 | 100 | 1010.9 |
| 20260510024133 | 53 | 155 | 0.0 | 0.0 | 0.00 | 0.34 | 0.34 | 100 | 1011.1 |
| 20260510023132 | 53 | 155 | 0.0 | 0.0 | 0.00 | 0.34 | 0.34 | 100 | 1011.0 |
| 20260510022633 | 53 | 155 | 0.0 | 0.0 | 0.00 | 0.34 | 0.34 | 100 | 1010.9 |
| 20260510022132 | 53 | 155 | 0.0 | 0.0 | 0.00 | 0.34 | 0.34 | 100 | 1010.8 |
| 20260510021633 | 53 | 155 | 0.0 | 0.0 | 0.00 | 0.34 | 0.34 | 100 | 1010.9 |
| 20260510021133 | 53 | 155 | 0.0 | 0.0 | 0.00 | 0.34 | 0.34 | 100 | 1010.9 |
| 20260510020631 | 53 | 155 | 0.0 | 0.0 | 0.00 | 0.34 | 0.34 | 100 | 1010.9 |
| 20260510020132 | 53 | 155 | 0.0 | 0.0 | 0.00 | 0.34 | 0.34 | 100 | 1010.9 |
| 20260510015632 | 53 | 154 | 0.0 | 0.0 | 0.00 | 0.34 | 0.34 | 100 | 1010.8 |
| 20260510015132 | 53 | 128 | 0.0 | 0.0 | 0.00 | 0.34 | 0.34 | 100 | 1010.8 |
| 20260510014632 | 53 | 128 | 0.0 | 0.0 | 0.00 | 0.34 | 0.34 | 100 | 1010.9 |
| 20260510014130 | 53 | 128 | 0.0 | 0.0 | 0.00 | 0.34 | 0.34 | 100 | 1011.0 |
| 20260510013632 | 53 | 128 | 0.0 | 0.0 | 0.00 | 0.34 | 0.34 | 100 | 1010.8 |
| 20260510013131 | 53 | 128 | 0.0 | 0.0 | 0.00 | 0.34 | 0.34 | 100 | 1010.6 |
| 20260510012631 | 53 | 128 | 0.0 | 0.0 | 0.00 | 0.34 | 0.34 | 100 | 1010.4 |
| 20260510012136 | 53 | 128 | 0.0 | 0.0 | 0.00 | 0.34 | 0.34 | 100 | 1010.3 |
| 20260510012131 | 53 | 128 | 0.0 | 0.0 | 0.00 | 0.34 | 0.34 | 100 | 1010.4 |
| 20260510011135 | 53 | 128 | 0.0 | 0.0 | 0.00 | 0.34 | 0.34 | 100 | 1010.4 |
| 20260510011130 | 53 | 128 | 0.0 | 0.0 | 0.00 | 0.34 | 0.34 | 100 | 1010.3 |
| 20260510010130 | 53 | 128 | 0.0 | 0.0 | 0.00 | 0.34 | 0.34 | 100 | 1010.4 |
| 20260510005635 | 53 | 128 | 0.0 | 0.0 | 0.00 | 0.34 | 0.34 | 100 | 1010.3 |
| 20260510005629 | 53 | 128 | 0.0 | 0.0 | 0.00 | 0.34 | 0.34 | 100 | 1010.2 |
| 20260510004629 | 54 | 128 | 0.0 | 0.0 | 0.00 | 0.34 | 0.34 | 100 | 1010.3 |
| 20260510004129 | 54 | 128 | 0.0 | 0.0 | 0.00 | 0.34 | 0.34 | 100 | 1010.2 |
| 20260510003634 | 54 | 128 | 0.0 | 0.0 | 0.00 | 0.34 | 0.34 | 100 | 1010.2 |
| 20260510003629 | 54 | 128 | 0.0 | 0.0 | 0.00 | 0.34 | 0.34 | 100 | 1010.2 |
| 20260510002634 | 54 | 106 | 0.0 | 0.0 | 0.00 | 0.34 | 0.34 | 100 | 1010.2 |
| 20260510002629 | 54 | 128 | 0.0 | 0.0 | 0.00 | 0.34 | 0.34 | 100 | 1010.1 |
| 20260510001634 | 55 | 106 | 0.0 | 0.0 | 0.00 | 0.34 | 0.34 | 100 | 1010.2 |
| 20260510001629 | 54 | 106 | 0.0 | 0.0 | 0.00 | 0.34 | 0.34 | 100 | 1010.2 |
| 20260510000629 | 55 | 106 | 0.0 | 0.0 | 0.01 | 0.34 | 0.34 | 100 | 1010.2 |
| 20260510000129 | 55 | 106 | 0.0 | 0.0 | 0.01 | 0.34 | 0.34 | 100 | 1010.1 |
| 20260509235628 | 55 | 58 | 0.0 | 0.0 | 0.02 | 0.34 | 0.34 | 100 | 1010.2 |
| 20260509235127 | 55 | 58 | 0.0 | 0.0 | 0.04 | 0.34 | 0.34 | 100 | 1010.2 |
| 20260509234626 | 55 | 58 | 0.0 | 0.0 | 0.05 | 0.34 | 0.34 | 100 | 1010.2 |
| 20260509234128 | 55 | 58 | 0.0 | 0.0 | 0.05 | 0.34 | 0.34 | 100 | 1010.1 |
| 20260509233627 | 55 | 58 | 0.0 | 0.0 | 0.05 | 0.34 | 0.34 | 100 | 1010.0 |
| 20260509233127 | 55 | 58 | 0.0 | 0.0 | 0.06 | 0.34 | 0.34 | 100 | 1010.1 |
| 20260509232628 | 55 | 58 | 0.0 | 0.0 | 0.07 | 0.34 | 0.34 | 100 | 1010.0 |
| 20260509232127 | 55 | 58 | 0.0 | 0.0 | 0.09 | 0.34 | 0.34 | 100 | 1009.9 |
| 20260509231626 | 55 | 58 | 0.0 | 1.0 | 0.12 | 0.34 | 0.34 | 100 | 1010.0 |
| 20260509231126 | 55 | 58 | 0.0 | 1.0 | 0.12 | 0.34 | 0.34 | 100 | 1009.8 |
| 20260509230627 | 55 | 207 | 0.0 | 1.0 | 0.12 | 0.33 | 0.33 | 100 | 1009.7 |
| 20260509230126 | 56 | 130 | 0.0 | 1.0 | 0.12 | 0.33 | 0.33 | 100 | 1009.8 |
| 20260509225626 | 56 | 120 | 0.0 | 1.0 | 0.11 | 0.32 | 0.32 | 100 | 1010.7 |
| 20260509225125 | 56 | 117 | 0.0 | 1.0 | 0.09 | 0.30 | 0.30 | 100 | 1011.0 |
| 20260509224625 | 56 | 159 | 0.0 | 0.0 | 0.08 | 0.29 | 0.29 | 100 | 1010.6 |
| 20260509224131 | 56 | 159 | 0.0 | 0.0 | 0.09 | 0.29 | 0.29 | 100 | 1010.6 |
| 20260509224125 | 56 | 159 | 0.0 | 0.0 | 0.08 | 0.29 | 0.29 | 100 | 1010.6 |
| 20260509223130 | 56 | 159 | 0.0 | 0.0 | 0.07 | 0.27 | 0.27 | 100 | 1010.7 |
| 20260509223125 | 56 | 159 | 0.0 | 0.0 | 0.08 | 0.28 | 0.28 | 100 | 1010.7 |
| 20260509222124 | 56 | 159 | 0.0 | 0.0 | 0.05 | 0.25 | 0.25 | 100 | 1011.0 |
| 20260509221629 | 56 | 159 | 0.0 | 0.0 | 0.02 | 0.22 | 0.22 | 100 | 1010.8 |
| 20260509221624 | 56 | 159 | 0.0 | 0.0 | 0.02 | 0.22 | 0.22 | 100 | 1011.1 |
| 20260509220628 | 57 | 159 | 0.0 | 0.0 | 0.01 | 0.21 | 0.21 | 100 | 1010.9 |
| 20260509220623 | 56 | 159 | 0.0 | 0.0 | 0.01 | 0.21 | 0.21 | 100 | 1010.5 |
| 20260509215624 | 57 | 159 | 0.0 | 0.0 | 0.02 | 0.21 | 0.21 | 100 | 1011.0 |
| 20260509215124 | 57 | 159 | 0.0 | 0.0 | 0.02 | 0.21 | 0.21 | 100 | 1010.8 |
| 20260509214623 | 56 | 159 | 0.0 | 0.0 | 0.03 | 0.21 | 0.21 | 100 | 1010.7 |
| 20260509214123 | 56 | 159 | 0.0 | 0.0 | 0.03 | 0.21 | 0.21 | 100 | 1010.8 |
| 20260509213622 | 56 | 159 | 0.0 | 0.0 | 0.02 | 0.20 | 0.20 | 100 | 1010.9 |
| 20260509213122 | 57 | 159 | 0.0 | 0.0 | 0.03 | 0.20 | 0.20 | 100 | 1011.1 |
| 20260509212622 | 57 | 159 | 0.0 | 0.0 | 0.03 | 0.20 | 0.20 | 100 | 1011.2 |
| 20260509212122 | 57 | 159 | 0.0 | 0.0 | 0.03 | 0.20 | 0.20 | 100 | 1011.1 |
| 20260509211621 | 57 | 159 | 0.0 | 0.0 | 0.03 | 0.20 | 0.20 | 100 | 1011.1 |
| 20260509211123 | 57 | 159 | 0.0 | 0.0 | 0.03 | 0.20 | 0.20 | 100 | 1011.1 |
| 20260509210627 | 57 | 159 | 0.0 | 0.0 | 0.03 | 0.20 | 0.20 | 100 | 1011.0 |
| 20260509210622 | 57 | 159 | 0.0 | 0.0 | 0.03 | 0.20 | 0.20 | 100 | 1011.0 |
| 20260509205621 | 57 | 159 | 0.0 | 0.0 | 0.02 | 0.19 | 0.19 | 100 | 1011.0 |
| 20260509205121 | 56 | 159 | 0.0 | 0.0 | 0.02 | 0.19 | 0.19 | 100 | 1010.9 |
| 20260509204621 | 56 | 159 | 0.0 | 1.0 | 0.02 | 0.18 | 0.18 | 100 | 1011.1 |
| 20260509204121 | 56 | 220 | 0.0 | 1.0 | 0.02 | 0.18 | 0.18 | 100 | 1011.2 |
| 20260509203625 | 57 | 164 | 0.0 | 4.0 | 0.02 | 0.17 | 0.18 | 100 | 1011.3 |
| 20260509203621 | 57 | 164 | 0.0 | 0.0 | 0.03 | 0.18 | 0.18 | 100 | 1011.2 |
| 20260509202622 | 57 | 92 | 0.0 | 4.0 | 0.03 | 0.17 | 0.17 | 100 | 1011.4 |
| 20260509202121 | 57 | 138 | 0.0 | 0.0 | 0.03 | 0.17 | 0.17 | 100 | 1011.4 |